Volver al catálogo

FIRESAT1

ActivoCienciaSSO
NORAD 69886·PAYLOAD·🇺🇸 United States

Lanzado Jul 7, 2026 desde Vandenberg Space Force Base

Loading…

Próximos Pases (próximas 24 horas)

TLE

ActualizadoSource: Space-Track

Época: Sep 14, 2026, 03:53 UTC

1 69886U 26156T   26257.16182802  .00000756  00000-0  80848-4 0  9997
2 69886  97.7470 156.4773 0006083 296.3004  63.7589 14.91614362 10250

Sigue FIRESAT1 en tiempo real con AllMySat

Download on the App Store